| time (UTC) | temp F | wind direction | speed knots | gust knots | rain 1hr in | rain 24hr in | rain mn in | humidity % | barometer mb |
| 20260504202028 | 80 | 265 | 1.7 | 11.3 | 0.00 | 0.00 | 0.00 | 45 | 1003.0 |
| 20260504201533 | 81 | 227 | 2.6 | 11.3 | 0.00 | 0.00 | 0.00 | 44 | 1003.1 |
| 20260504201037 | 80 | 217 | 1.7 | 8.7 | 0.00 | 0.00 | 0.00 | 45 | 1003.0 |
| 20260504200522 | 81 | 232 | 0.9 | 13.9 | 0.00 | 0.00 | 0.00 | 44 | 1003.1 |
| 20260504200048 | 81 | 212 | 2.6 | 9.6 | 0.00 | 0.00 | 0.00 | 45 | 1003.2 |
| 20260504195531 | 80 | 228 | 0.9 | 8.7 | 0.00 | 0.00 | 0.00 | 45 | 1003.4 |
| 20260504195035 | 80 | 201 | 1.7 | 7.0 | 0.00 | 0.00 | 0.00 | 45 | 1003.4 |
| 20260504194519 | 80 | 200 | 0.9 | 10.4 | 0.00 | 0.00 | 0.00 | 45 | 1003.3 |
| 20260504194044 | 80 | 200 | 1.7 | 10.4 | 0.00 | 0.00 | 0.00 | 45 | 1003.6 |
| 20260504193530 | 80 | 156 | 1.7 | 9.6 | 0.00 | 0.00 | 0.00 | 45 | 1003.5 |
| 20260504193035 | 80 | 219 | 0.9 | 8.7 | 0.00 | 0.00 | 0.00 | 45 | 1003.5 |
| 20260504192520 | 80 | 194 | 1.7 | 13.0 | 0.00 | 0.00 | 0.00 | 45 | 1003.6 |
| 20260504192029 | 80 | 275 | 2.6 | 13.0 | 0.00 | 0.00 | 0.00 | 45 | 1003.7 |
| 20260504191533 | 80 | 231 | 1.7 | 12.2 | 0.00 | 0.00 | 0.00 | 45 | 1003.7 |
| 20260504191018 | 80 | 226 | 2.6 | 9.6 | 0.00 | 0.00 | 0.00 | 45 | 1003.6 |
| 20260504190543 | 80 | 229 | 0.9 | 10.4 | 0.00 | 0.00 | 0.00 | 44 | 1003.7 |
| 20260504190047 | 80 | 200 | 0.9 | 10.4 | 0.00 | 0.00 | 0.00 | 45 | 1003.7 |
| 20260504185531 | 80 | 245 | 0.9 | 6.1 | 0.00 | 0.00 | 0.00 | 46 | 1003.7 |
| 20260504185057 | 79 | 206 | 0.9 | 7.8 | 0.00 | 0.00 | 0.00 | 46 | 1003.8 |
| 20260504184520 | 79 | 207 | 0.9 | 9.6 | 0.00 | 0.00 | 0.00 | 45 | 1003.9 |
| 20260504184045 | 79 | 207 | 1.7 | 11.3 | 0.00 | 0.00 | 0.00 | 44 | 1003.9 |
| 20260504183528 | 79 | 257 | 2.6 | 12.2 | 0.00 | 0.00 | 0.00 | 45 | 1003.8 |
| 20260504183036 | 80 | 266 | 1.7 | 12.2 | 0.00 | 0.00 | 0.00 | 45 | 1003.9 |
| 20260504182520 | 80 | 246 | 0.9 | 9.6 | 0.00 | 0.00 | 0.00 | 46 | 1003.9 |
| 20260504182026 | 79 | 259 | 0.9 | 11.3 | 0.00 | 0.00 | 0.00 | 45 | 1003.9 |
| 20260504181529 | 79 | 230 | 1.7 | 11.3 | 0.00 | 0.00 | 0.00 | 45 | 1004.0 |
| 20260504181018 | 80 | 215 | 1.7 | 8.7 | 0.00 | 0.00 | 0.00 | 45 | 1004.0 |
| 20260504180524 | 80 | 238 | 0.0 | 2.6 | 0.00 | 0.00 | 0.00 | 46 | 1003.9 |
| 20260504180029 | 80 | 200 | 0.0 | 11.3 | 0.00 | 0.00 | 0.00 | 46 | 1004.0 |
| 20260504175534 | 79 | 200 | 0.9 | 11.3 | 0.00 | 0.00 | 0.00 | 46 | 1004.0 |
| 20260504175019 | 78 | 229 | 1.7 | 13.0 | 0.00 | 0.00 | 0.00 | 46 | 1004.0 |
| 20260504174545 | 78 | 244 | 2.6 | 13.0 | 0.00 | 0.00 | 0.00 | 46 | 1004.0 |
| 20260504174049 | 78 | 258 | 0.9 | 12.2 | 0.00 | 0.00 | 0.00 | 46 | 1004.0 |
| 20260504173532 | 78 | 199 | 1.7 | 12.2 | 0.00 | 0.00 | 0.00 | 46 | 1004.0 |
| 20260504173018 | 78 | 252 | 0.9 | 13.9 | 0.00 | 0.00 | 0.00 | 47 | 1004.0 |
| 20260504172522 | 77 | 244 | 1.7 | 13.9 | 0.00 | 0.00 | 0.00 | 47 | 1004.0 |
| 20260504172027 | 77 | 255 | 2.6 | 12.2 | 0.00 | 0.00 | 0.00 | 47 | 1004.0 |
| 20260504171552 | 77 | 216 | 2.6 | 9.6 | 0.00 | 0.00 | 0.00 | 47 | 1003.9 |
| 20260504171019 | 77 | 264 | 1.7 | 13.0 | 0.00 | 0.00 | 0.00 | 47 | 1004.0 |
| 20260504170544 | 77 | 207 | 3.5 | 13.0 | 0.00 | 0.00 | 0.00 | 46 | 1003.9 |
| 20260504151031 | 73 | 255 | 4.3 | 15.6 | 0.00 | 0.00 | 0.00 | 48 | 1004.4 |
| 20260504150556 | 72 | 257 | 2.6 | 12.2 | 0.00 | 0.00 | 0.00 | 49 | 1004.4 |
| 20260504141033 | 69 | 218 | 1.7 | 8.7 | 0.00 | 0.00 | 0.00 | 53 | 1005.3 |
| 20260504140519 | 68 | 201 | 2.6 | 8.7 | 0.00 | 0.00 | 0.00 | 54 | 1005.3 |
| 20260504130523 | 66 | 207 | 1.7 | 8.7 | 0.00 | 0.00 | 0.00 | 57 | 1005.7 |
| 20260504110521 | 64 | 227 | 0.9 | 7.0 | 0.00 | 0.00 | 0.00 | 55 | 1005.9 |
| 20260504100536 | 65 | 215 | 0.0 | 2.6 | 0.00 | 0.00 | 0.00 | 55 | 1006.5 |
| 20260504081529 | 66 | 242 | 0.9 | 3.5 | 0.00 | 0.00 | 0.00 | 54 | 1006.6 |
| 20260504081054 | 66 | 224 | 0.9 | 3.5 | 0.00 | 0.00 | 0.00 | 54 | 1006.6 |
| 20260504080519 | 66 | 234 | 0.0 | 3.5 | 0.00 | 0.00 | 0.00 | 54 | 1006.6 |
| 20260504050539 | 68 | 193 | 0.0 | 1.7 | 0.00 | 0.00 | 0.00 | 53 | 1008.0 |
| 20260504050023 | 68 | 178 | 0.0 | 1.7 | 0.00 | 0.00 | 0.00 | 52 | 1008.0 |
| 20260504045547 | 68 | 235 | 0.0 | 1.7 | 0.00 | 0.00 | 0.00 | 52 | 1008.0 |
| 20260504045031 | 68 | 221 | 0.0 | 1.7 | 0.00 | 0.00 | 0.00 | 52 | 1008.0 |
| 20260504044516 | 68 | 245 | 0.0 | 1.7 | 0.00 | 0.00 | 0.00 | 52 | 1007.9 |
| 20260504044042 | 69 | 204 | 0.0 | 1.7 | 0.00 | 0.00 | 0.00 | 51 | 1008.0 |
| 20260504043526 | 69 | 212 | 0.0 | 1.7 | 0.00 | 0.00 | 0.00 | 51 | 1008.0 |
| 20260504043031 | 69 | 188 | 0.0 | 1.7 | 0.00 | 0.00 | 0.00 | 51 | 1008.1 |
| 20260504042536 | 69 | 173 | 0.0 | 1.7 | 0.00 | 0.00 | 0.00 | 51 | 1008.1 |
| 20260504042019 | 69 | 194 | 0.0 | 1.7 | 0.00 | 0.00 | 0.00 | 51 | 1008.2 |
| 20260504041522 | 69 | 209 | 0.0 | 0.9 | 0.00 | 0.00 | 0.00 | 51 | 1008.2 |
| 20260504041025 | 69 | 215 | 0.0 | 1.7 | 0.00 | 0.00 | 0.00 | 51 | 1008.2 |
| 20260504040523 | 69 | 202 | 0.0 | 1.7 | 0.00 | 0.00 | 0.00 | 51 | 1008.2 |
| 20260504040033 | 69 | 224 | 0.0 | 0.9 | 0.00 | 0.00 | 0.00 | 51 | 1008.3 |
| 20260504035557 | 69 | 201 | 0.0 | 1.7 | 0.00 | 0.00 | 0.00 | 51 | 1008.3 |
| 20260504035020 | 69 | 185 | 0.0 | 4.3 | 0.00 | 0.00 | 0.00 | 50 | 1008.3 |
| 20260504034546 | 69 | 227 | 0.0 | 4.3 | 0.00 | 0.00 | 0.00 | 50 | 1008.4 |
| 20260504034030 | 69 | 209 | 0.0 | 0.9 | 0.00 | 0.00 | 0.00 | 50 | 1008.4 |
| 20260504033556 | 69 | 217 | 0.0 | 1.7 | 0.00 | 0.00 | 0.00 | 50 | 1008.4 |
| 20260504033019 | 69 | 196 | 0.0 | 1.7 | 0.00 | 0.00 | 0.00 | 49 | 1008.5 |
| 20260504032523 | 69 | 193 | 0.0 | 0.9 | 0.00 | 0.00 | 0.00 | 49 | 1008.5 |
| 20260504032028 | 70 | 232 | 0.0 | 0.9 | 0.00 | 0.00 | 0.00 | 49 | 1008.5 |
| 20260504031534 | 70 | 171 | 0.0 | 0.9 | 0.00 | 0.00 | 0.00 | 49 | 1008.5 |
| 20260504031019 | 70 | 198 | 0.0 | 0.9 | 0.00 | 0.00 | 0.00 | 49 | 1008.5 |
| 20260504030524 | 70 | 192 | 0.0 | 0.9 | 0.00 | 0.00 | 0.00 | 49 | 1008.5 |
| 20260504030029 | 70 | 186 | 0.0 | 0.9 | 0.00 | 0.00 | 0.00 | 49 | 1008.5 |
| 20260504025519 | 70 | 209 | 0.0 | 0.9 | 0.00 | 0.00 | 0.00 | 49 | 1008.6 |
| 20260504025043 | 70 | 198 | 0.0 | 0.9 | 0.00 | 0.00 | 0.00 | 49 | 1008.5 |
| 20260504024528 | 70 | 109 | 0.0 | 0.9 | 0.00 | 0.00 | 0.00 | 49 | 1008.5 |
| 20260504024054 | 70 | 213 | 0.0 | 0.9 | 0.00 | 0.00 | 0.00 | 49 | 1008.5 |
| 20260504023518 | 70 | 213 | 0.0 | 0.9 | 0.00 | 0.00 | 0.00 | 49 | 1008.5 |
| 20260504023023 | 70 | 215 | 0.0 | 0.9 | 0.00 | 0.00 | 0.00 | 49 | 1008.5 |
| 20260504022529 | 70 | 181 | 0.0 | 0.9 | 0.00 | 0.00 | 0.00 | 49 | 1008.5 |
| 20260504022033 | 70 | 192 | 0.0 | 0.0 | 0.00 | 0.00 | 0.00 | 49 | 1008.5 |
| 20260504021518 | 70 | 178 | 0.0 | 0.0 | 0.00 | 0.00 | 0.00 | 48 | 1008.5 |
| 20260504021024 | 70 | 196 | 0.0 | 0.0 | 0.00 | 0.00 | 0.00 | 48 | 1008.5 |
| 20260504020549 | 71 | 190 | 0.0 | 0.0 | 0.00 | 0.00 | 0.00 | 47 | 1008.5 |
| 20260504020053 | 71 | 196 | 0.0 | 0.0 | 0.00 | 0.00 | 0.00 | 46 | 1008.5 |
| 20260504015518 | 71 | 169 | 0.0 | 0.0 | 0.00 | 0.00 | 0.00 | 46 | 1008.5 |
| 20260504015027 | 71 | 211 | 0.0 | 0.0 | 0.00 | 0.00 | 0.00 | 46 | 1008.4 |
| 20260504014532 | 71 | 219 | 0.0 | 0.0 | 0.00 | 0.00 | 0.00 | 45 | 1008.5 |
| 20260504014058 | 72 | 162 | 0.0 | 0.0 | 0.00 | 0.00 | 0.00 | 45 | 1008.4 |
| 20260504013520 | 72 | 197 | 0.0 | 0.0 | 0.00 | 0.00 | 0.00 | 44 | 1008.4 |
| 20260504013025 | 72 | 200 | 0.0 | 0.0 | 0.00 | 0.00 | 0.00 | 43 | 1008.4 |
| 20260504012531 | 72 | 182 | 0.0 | 0.0 | 0.00 | 0.00 | 0.00 | 43 | 1008.5 |
| 20260504012035 | 72 | 186 | 0.0 | 0.0 | 0.00 | 0.00 | 0.00 | 42 | 1008.4 |
| 20260504011520 | 73 | 193 | 0.0 | 0.0 | 0.00 | 0.00 | 0.00 | 41 | 1008.4 |
| 20260504011025 | 73 | 209 | 0.0 | 0.0 | 0.00 | 0.00 | 0.00 | 41 | 1008.5 |
| 20260504010530 | 74 | 194 | 0.0 | 0.0 | 0.00 | 0.00 | 0.00 | 41 | 1008.5 |
| 20260504010035 | 74 | 210 | 0.0 | 0.0 | 0.00 | 0.00 | 0.00 | 41 | 1008.6 |
| 20260504005540 | 74 | 209 | 0.0 | 0.0 | 0.00 | 0.00 | 0.00 | 41 | 1008.6 |
| 20260504005027 | 74 | 216 | 0.0 | 0.0 | 0.00 | 0.00 | 0.00 | 41 | 1008.6 |
| 20260504004533 | 75 | 197 | 0.0 | 0.0 | 0.00 | 0.00 | 0.00 | 41 | 1008.6 |
| 20260504004018 | 75 | 202 | 0.0 | 0.0 | 0.00 | 0.00 | 0.00 | 41 | 1008.7 |
| 20260504003523 | 75 | 227 | 0.0 | 0.0 | 0.00 | 0.00 | 0.00 | 40 | 1008.7 |
| 20260504003028 | 76 | 212 | 0.0 | 0.0 | 0.00 | 0.00 | 0.00 | 40 | 1008.7 |
| 20260504002533 | 76 | 209 | 0.0 | 0.0 | 0.00 | 0.00 | 0.00 | 40 | 1008.7 |
| 20260504002018 | 76 | 207 | 0.0 | 0.0 | 0.00 | 0.00 | 0.00 | 39 | 1008.8 |
| 20260504001524 | 76 | 245 | 0.0 | 0.0 | 0.00 | 0.00 | 0.00 | 39 | 1008.7 |
| 20260504001029 | 77 | 233 | 0.0 | 0.0 | 0.00 | 0.00 | 0.00 | 38 | 1008.7 |
| 20260504000554 | 77 | 240 | 0.0 | 0.0 | 0.00 | 0.00 | 0.00 | 37 | 1008.7 |
| 20260504000018 | 77 | 210 | 0.0 | 0.9 | 0.00 | 0.00 | 0.00 | 37 | 1008.7 |
| 20260503235543 | 77 | 209 | 0.0 | 0.9 | 0.00 | 0.00 | 0.00 | 35 | 1008.7 |
| 20260503235047 | 78 | 215 | 0.0 | 0.0 | 0.00 | 0.00 | 0.00 | 35 | 1008.7 |
| 20260503234535 | 78 | 244 | 0.0 | 0.9 | 0.00 | 0.00 | 0.00 | 34 | 1008.8 |
| 20260503234041 | 78 | 236 | 0.0 | 2.6 | 0.00 | 0.00 | 0.00 | 34 | 1008.8 |
| 20260503233545 | 78 | 231 | 0.0 | 2.6 | 0.00 | 0.00 | 0.00 | 34 | 1008.7 |
| 20260503233029 | 78 | 205 | 0.0 | 0.9 | 0.00 | 0.00 | 0.00 | 34 | 1008.8 |
| 20260503232534 | 78 | 224 | 0.0 | 0.9 | 0.00 | 0.00 | 0.00 | 34 | 1008.7 |
| 20260503232018 | 78 | 239 | 0.0 | 3.5 | 0.00 | 0.00 | 0.00 | 34 | 1008.8 |
| 20260503231545 | 78 | 232 | 0.0 | 6.1 | 0.00 | 0.00 | 0.00 | 34 | 1008.9 |
| 20260503231028 | 78 | 214 | 0.0 | 6.1 | 0.00 | 0.00 | 0.00 | 35 | 1008.8 |
| 20260503230534 | 79 | 197 | 0.0 | 2.6 | 0.00 | 0.00 | 0.00 | 36 | 1008.8 |
| 20260503230020 | 79 | 230 | 0.0 | 2.6 | 0.00 | 0.00 | 0.00 | 36 | 1008.9 |
| 20260503225524 | 79 | 203 | 0.0 | 1.7 | 0.00 | 0.00 | 0.00 | 36 | 1008.8 |
| 20260503225029 | 79 | 213 | 0.0 | 7.0 | 0.00 | 0.00 | 0.00 | 35 | 1009.0 |
| 20260503224517 | 79 | 213 | 0.9 | 7.0 | 0.00 | 0.00 | 0.00 | 35 | 1008.9 |
| 20260503224022 | 79 | 239 | 0.9 | 6.1 | 0.00 | 0.00 | 0.00 | 34 | 1008.9 |
| 20260503223528 | 80 | 202 | 0.9 | 4.3 | 0.00 | 0.00 | 0.00 | 34 | 1008.9 |
| 20260503223034 | 80 | 213 | 0.0 | 10.4 | 0.00 | 0.00 | 0.00 | 33 | 1009.0 |
| 20260503222519 | 80 | 279 | 0.9 | 10.4 | 0.00 | 0.00 | 0.00 | 34 | 1009.1 |
| 20260503222044 | 80 | 244 | 0.9 | 6.1 | 0.00 | 0.00 | 0.00 | 33 | 1009.0 |
| 20260503221529 | 80 | 169 | 1.7 | 9.6 | 0.00 | 0.00 | 0.00 | 34 | 1009.1 |
| 20260503221033 | 80 | 227 | 0.0 | 7.0 | 0.00 | 0.00 | 0.00 | 34 | 1009.1 |
| 20260503220519 | 80 | 197 | 0.9 | 7.0 | 0.00 | 0.00 | 0.00 | 33 | 1009.3 |
| 20260503220024 | 80 | 234 | 0.0 | 9.6 | 0.00 | 0.00 | 0.00 | 34 | 1009.2 |
| 20260503215530 | 80 | 256 | 0.9 | 14.8 | 0.00 | 0.00 | 0.00 | 33 | 1009.2 |
| 20260503215018 | 80 | 188 | 1.7 | 14.8 | 0.00 | 0.00 | 0.00 | 33 | 1009.3 |
| 20260503214524 | 80 | 182 | 1.7 | 9.6 | 0.00 | 0.00 | 0.00 | 33 | 1009.2 |
| 20260503214027 | 80 | 196 | 0.9 | 10.4 | 0.00 | 0.00 | 0.00 | 33 | 1009.4 |
| 20260503213533 | 80 | 219 | 2.6 | 10.4 | 0.00 | 0.00 | 0.00 | 33 | 1009.5 |
| 20260503213057 | 80 | 282 | 0.9 | 8.7 | 0.00 | 0.00 | 0.00 | 33 | 1009.5 |
| 20260503212522 | 80 | 237 | 0.0 | 7.8 | 0.00 | 0.00 | 0.00 | 33 | 1009.6 |
| 20260503212026 | 80 | 186 | 0.9 | 7.8 | 0.00 | 0.00 | 0.00 | 34 | 1009.6 |
| 20260503211533 | 80 | 261 | 0.9 | 9.6 | 0.00 | 0.00 | 0.00 | 33 | 1009.7 |
| 20260503211037 | 80 | 265 | 0.9 | 7.8 | 0.00 | 0.00 | 0.00 | 33 | 1009.8 |
| 20260503210542 | 80 | 217 | 0.9 | 8.7 | 0.00 | 0.00 | 0.00 | 33 | 1009.8 |
| 20260503210026 | 80 | 220 | 1.7 | 8.7 | 0.00 | 0.00 | 0.00 | 32 | 1010.0 |
| 20260503205551 | 80 | 212 | 1.7 | 7.8 | 0.00 | 0.00 | 0.00 | 32 | 1010.1 |
| 20260503205035 | 80 | 180 | 0.0 | 6.1 | 0.00 | 0.00 | 0.00 | 34 | 1010.1 |
| 20260503204521 | 80 | 223 | 0.9 | 8.7 | 0.00 | 0.00 | 0.00 | 34 | 1010.3 |
| 20260503204028 | 79 | 306 | 0.9 | 12.2 | 0.00 | 0.00 | 0.00 | 33 | 1010.4 |
| 20260503203534 | 80 | 271 | 1.7 | 12.2 | 0.00 | 0.00 | 0.00 | 35 | 1010.4 |
| 20260503203018 | 79 | 220 | 0.9 | 7.0 | 0.00 | 0.00 | 0.00 | 35 | 1010.4 |
| 20260503202526 | 79 | 185 | 0.9 | 14.8 | 0.00 | 0.00 | 0.00 | 36 | 1010.5 |